UGKOURMM

Guest
Details From UGKO - KOPITNARI
To URMM - MINERALNYYE VODY
Flight Number -
Tags generated
Created
Modified
Stats Distance 126 nm / 233 km
Max Altitude 7,600 ft / 2,316 m
Waypoints 3
Social Downloads 0
Likes 0
Share VATSIM

Download

Looking for another format? Having issues loading an existing format? Contact us
Advertisement - Login to hide

Notes

Basic altitude profile: - Ascent Rate: 2500ft/min - Ascent Speed: 250kts - Cruise Altitude: 35000ft - Cruise Speed: 420kts - Descent Rate: 1500ft/min - Descent Speed: 250kts Options: - Use NATs: yes - Use PACOTS: yes - Use low airways: yes - Use high airways: yes

Route

UGKO LORNA URMM

ID Type Via Altitude Latitude Longitude Leg Dist Tot Dist Heading (true) Name
O UGKO APT - 0 ft / 0 m 42.17665˚ 42.48258˚ - 0 nm - KOPITNARI
LORNA FIX - 7,600 ft / 2,316 m 43.65000˚ 42.88333˚ 90 nm 90 nm 11° / 11° -
O URMM APT - 0 ft / 0 m 44.22507˚ 43.08189˚ 35 nm 125 nm 14° / 14° MINERALNYYE VODY

Altitude Profile

Advertisement - Login to hide

UGKO

Details ICAO UGKO (KUT)
Name KOPITNARI
Region Georgia
Timezone Asia/Tbilisi (UTC+4.0)
Stats Elevation 223 ft / 68 m (AMSL)
Location 42.176653° 42.482583°
Runways 1
Magnetic Variation 6.772° E

METAR

UGKO 222200Z 28003KT 260V320 9999 BKN049 18/17 Q1015 NOSIG

Decode

TAF

Not found

Departure Runways

ID Width Length Bearing (true) Bearing (mag) Surface Threshold Offset Overrun Length
08 144 ft / 44 m 8,171 ft / 2,490 m 80.55° 73.78° Concrete 0 ft / 0 m 60 ft / 18 m
26 144 ft / 44 m 8,171 ft / 2,490 m 260.57° 253.80° Concrete 0 ft / 0 m 60 ft / 18 m

URMM

Details ICAO URMM (MRV)
Name MINERALNYYE VODY
Region Russia
Timezone Europe/Moscow (UTC+3.0)
Stats Elevation 1,054 ft / 321 m (AMSL)
Location 44.225073° 43.081891°
Runways 1
Magnetic Variation 7.425° E

METAR

URMM 222200Z 27003MPS 9999 NSC 16/14 Q1018 R12/090070 NOSIG RMK QFE736/0981

Decode

TAF

TAF URMM 222000Z 2221/2321 10003G08MPS 9999 SCT030 TX27/2312Z TN13/2302Z TEMPO 2221/2306 VRB01MPS 3100 BR BKN011 TEMPO 2315/2321 28003G08MPS 3100 -SHRA BKN011 BKN030CB

Decode

Destination Runways

ID Width Length Bearing (true) Bearing (mag) Surface Threshold Offset Overrun Length
12 197 ft / 60 m 12,766 ft / 3,891 m 122.28° 114.86° Concrete 0 ft / 0 m 240 ft / 73 m
30 197 ft / 60 m 12,766 ft / 3,891 m 302.31° 294.89° Concrete 0 ft / 0 m 250 ft / 76 m